Regional Weather Roundup
Issued by NWS Jackson, KY

Home | Current Version | Previous Version | Graphics & Text | Print | Product List | Glossary On
Versions: 1 2 3 4 5 6 7 8 9 10 11 12 13 14 15 16 17 18 19 20 21 22 23 24 25 26 27 28 29 30 31 32 33 34 35 36 37 38 39 40 41 42 43 44 45 46 47 48 49 50
000
ASUS43 KJKL 310905
RWRJKL

EAST KENTUCKY HOURLY WEATHER ROUNDUP
NATIONAL WEATHER SERVICE JACKSON KY
500 AM EDT THU JUL 31 2014

NOTE: "FAIR" INDICATES FEW OR NO CLOUDS BELOW 12,000 FEET WITH
NO SIGNIFICANT WEATHER AND/OR OBSTRUCTIONS TO VISIBILITY.

* THESE REPORTS ARE NOT UNDER NWS QUALITY CONTROL AND MAY NOT
  REPORT WEATHER SUCH AS PRECIPITATION AND FOG.

KYZ079-080-083-085-087-088-110-112-115-119-120-311000
...EASTERN KENTUCKY...

CITY           SKY/WX    TMP DP  RH WIND       PRES   REMARKS
JACKSON        PTCLDY    61  57  87 CALM      30.11S
LONDON         PTCLDY    61  58  90 CALM      30.12S
SOMERSET*      CLEAR     57  57 100 CALM      30.12S
MONTICELLO*    PTCLDY    57  57 100 CALM      30.12S FOG
MIDDLESBORO*   FOG       57  57 100 CALM      30.14R VSB 3/4
HARLAN APT*    CLOUDY    57  55  94 MISG      30.14S VSB 1/4
BLACK MTN*       N/A     55  54  94 CALM        N/A
PIKEVILLE APT* CLEAR     59  57  94 S5        30.12S
BIG SANDY*     SUNNY     60  58  93 CALM      30.11S
MOREHEAD APT*    N/A     59  57  94 CALM      30.11F
$$

KYZ035-036-041-042-044-050-067-078-099-311000
...CENTRAL KENTUCKY...

CITY           SKY/WX    TMP DP  RH WIND       PRES   REMARKS
MT STERLING*   PTCLDY    55  55 100 SW3       30.10F
FLEMING/MASON* PTCLDY    60  57  91 S7        30.09F
DANVILLE*      PTCLDY    57  55  94 CALM      30.11S
RICHMOND*      PTCLDY    59  57  94 CALM      30.09S
LEXINGTON      CLEAR     60  57  89 S5        30.09S
FRANKFORT      CLEAR     57  56  96 CALM      30.08S
$$

KYZ091>093-OHZ055-061-077-WVZ005-015-034-035-042-311000
...SOUTHERN OHIO/WEST VIRGINIA...

CITY           SKY/WX    TMP DP  RH WIND       PRES   REMARKS
COVINGTON      PTCLDY    65  60  84 CALM      30.07S
COLUMBUS       PTCLDY    63  58  83 SW3       30.06R
DAYTON         CLEAR     62  58  86 S3        30.07R
WILMINGTON     CLEAR     59  57  93 S5        30.07S FOG
HUNTINGTON     CLEAR     57  57 100 CALM      30.08S
CHARLESTON     CLOUDY    60  60 100 CALM      30.09R
PINEVILLE*     FOG       57  57 100 MISG      30.20R VSB 1
BECKLEY        PTCLDY    55  52  89 S3        30.16S
BLUEFIELD      CLEAR     59  51  75 CALM      30.18S
$$

VAZ002-007-008-TNZ017-027-036-066-071-311000
...SOUTHWEST VIRGINIA/EAST TENNESSEE...

CITY           SKY/WX    TMP DP  RH WIND       PRES   REMARKS
WISE*          PTCLDY    57  55  94 CALM      30.17S
JONESVILLE*      N/A     55  55 100 CALM      30.15S
ABINGDON*      PTCLDY    58  56  91 CALM      30.15S
BRISTOL        MOCLDY    58  55  90 CALM      30.13S
KNOXVILLE      CLOUDY    59  58  96 E3        30.09R
OAK RIDGE      MOCLDY    61  59  93 CALM      30.11S FOG
CROSSVILLE     MOCLDY    62  56  80 CALM      30.14R HAZE
NASHVILLE      MOCLDY    63  59  87 CALM      30.09S
$$

...KEY TO REMARKS...
VSB - VISIBILITY IN MILES
WCI - WIND CHILL INDEX
HX  - HEAT INDEX

$$


USA.gov is the U.S. government's official web portal to all federal, state and local government web resources and services.